This is the latest recevied weather packets stored in our database for station/object HG8PDN-11. If no packets are shown the sender has not sent any weather packets the latest 1 day(s).
| Time | Temp. | Humidity | Pressure | Rain* | Wind** | Luminosity | Snow |
|---|---|---|---|---|---|---|---|
| 1778089546 | 29.44° C | 21% | 1009.6 hPa | - | - | - | - |
| 1778085945 | 30.56° C | 20% | 1009.5 hPa | - | - | - | - |
| 1778085113 | 30.56° C | 20% | 1009.6 hPa | - | - | - | - |
| 1778085045 | 30.56° C | 20% | 1009.6 hPa | - | - | - | - |
| 1778082344 | 31.11° C | 19% | 1009.7 hPa | - | - | - | - |
| 1778081444 | 31.11° C | 18% | 1009.8 hPa | - | - | - | - |
| 1778080580 | 31.67° C | 18% | 1009.8 hPa | - | - | - | - |
| 1778078743 | 32.22° C | 18% | 1009.8 hPa | - | - | - | - |
| 1778077842 | 31.67° C | 18% | 1010 hPa | - | - | - | - |
| 1778076942 | 31.11° C | 18% | 1010.1 hPa | - | - | - | - |
| 1778076041 | 31.67° C | 18% | 1010.3 hPa | - | - | - | - |
| 1778075178 | 31.11° C | 19% | 1010.4 hPa | - | - | - | - |
| 1778073379 | 31.11° C | 18% | 1010.5 hPa | - | - | - | - |
| 1778071538 | 31.11° C | 20% | 1011 hPa | - | - | - | - |
| 1778070638 | 31.11° C | 19% | 1011 hPa | - | - | - | - |
| 1778067937 | 31.11° C | 20% | 1011.3 hPa | - | - | - | - |
| 1778065236 | 30° C | 21% | 1011.7 hPa | - | - | - | - |
| 1778064336 | 30° C | 21% | 1011.8 hPa | - | - | - | - |
| 1778063435 | 29.44° C | 21% | 1012 hPa | - | - | - | - |
| 1778062535 | 29.44° C | 21% | 1012 hPa | - | - | - | - |
| 1778060735 | 29.44° C | 22% | 1012.1 hPa | - | - | - | - |
| 1778059869 | 28.89° C | 23% | 1012.2 hPa | - | - | - | - |
| 1778058934 | 28.89° C | 22% | 1012.1 hPa | - | - | - | - |
| 1778058034 | 28.33° C | 23% | 1012.1 hPa | - | - | - | - |
| 1778057134 | 27.78° C | 24% | 1012.5 hPa | - | - | - | - |
* Rain since midnight (hover to see other rain measurements)
** Current wind speed in m/s (hover to see current wind gust speed)